| time (UTC) | temp F | wind direction | speed knots | gust knots | rain 1hr in | rain 24hr in | rain mn in | humidity % | barometer mb |
| 20260505234600 | 60 | 0.0 | 0.0 | 0.00 | 0.01 | 0.01 | 74 | 1008.2 | |
| 20260505233109 | 60 | 0.0 | 0.0 | 0.00 | 0.01 | 0.01 | 73 | 1008.1 | |
| 20260505231558 | 60 | 0.0 | 0.0 | 0.00 | 0.01 | 0.01 | 73 | 1008.0 | |
| 20260505230056 | 60 | 0.0 | 0.0 | 0.00 | 0.01 | 0.01 | 74 | 1007.9 | |
| 20260505224557 | 60 | 0.0 | 0.0 | 0.00 | 0.01 | 0.01 | 76 | 1008.1 | |
| 20260505223055 | 61 | 0.0 | 0.0 | 0.00 | 0.01 | 0.01 | 74 | 1007.8 | |
| 20260505221602 | 65 | 0.0 | 0.0 | 0.00 | 0.01 | 0.01 | 64 | 1007.1 | |
| 20260505220057 | 71 | 0.0 | 0.0 | 0.00 | 0.01 | 0.01 | 40 | 1006.3 | |
| 20260505214605 | 71 | 0.0 | 0.0 | 0.00 | 0.01 | 0.01 | 39 | 1005.9 | |
| 20260505213118 | 72 | 0.0 | 0.0 | 0.00 | 0.01 | 0.01 | 39 | 1005.9 | |
| 20260505211556 | 72 | 0.0 | 0.0 | 0.00 | 0.01 | 0.01 | 38 | 1005.5 | |
| 20260505210106 | 72 | 0.0 | 0.0 | 0.00 | 0.01 | 0.01 | 39 | 1005.3 | |
| 20260505204559 | 72 | 0.0 | 0.0 | 0.00 | 0.01 | 0.01 | 40 | 1005.2 | |
| 20260505203057 | 72 | 0.0 | 0.0 | 0.00 | 0.01 | 0.01 | 39 | 1005.3 | |
| 20260505201555 | 73 | 0.0 | 0.0 | 0.00 | 0.01 | 0.01 | 39 | 1005.3 | |
| 20260505200056 | 73 | 0.0 | 0.0 | 0.00 | 0.01 | 0.01 | 39 | 1005.4 | |
| 20260505194600 | 73 | 0.0 | 0.0 | 0.00 | 0.01 | 0.01 | 39 | 1005.3 | |
| 20260505193124 | 72 | 0.0 | 0.0 | 0.00 | 0.01 | 0.01 | 44 | 1005.5 | |
| 20260505191605 | 71 | 0.0 | 0.0 | 0.00 | 0.01 | 0.01 | 41 | 1005.6 | |
| 20260505190055 | 72 | 0.0 | 0.0 | 0.00 | 0.01 | 0.01 | 42 | 1005.6 | |
| 20260505184601 | 71 | 0.0 | 0.0 | 0.00 | 0.01 | 0.01 | 41 | 1005.7 | |
| 20260505183057 | 72 | 0.0 | 0.0 | 0.00 | 0.01 | 0.01 | 41 | 1005.8 | |
| 20260505181557 | 74 | 0.0 | 0.0 | 0.00 | 0.01 | 0.01 | 39 | 1005.9 | |
| 20260505180058 | 74 | 0.0 | 0.0 | 0.00 | 0.01 | 0.01 | 37 | 1006.1 | |
| 20260505174558 | 75 | 0.0 | 0.0 | 0.00 | 0.01 | 0.01 | 36 | 1006.5 | |
| 20260505173054 | 73 | 0.0 | 0.0 | 0.00 | 0.01 | 0.01 | 38 | 1006.8 | |
| 20260505171558 | 73 | 0.0 | 0.0 | 0.00 | 0.01 | 0.01 | 39 | 1006.7 | |
| 20260505170059 | 73 | 0.0 | 0.0 | 0.00 | 0.01 | 0.01 | 42 | 1007.0 | |
| 20260505164558 | 73 | 0.0 | 0.0 | 0.00 | 0.01 | 0.01 | 41 | 1006.8 | |
| 20260505163058 | 72 | 0.0 | 0.0 | 0.00 | 0.01 | 0.01 | 41 | 1007.3 | |
| 20260505161602 | 72 | 0.0 | 0.0 | 0.00 | 0.01 | 0.01 | 45 | 1007.5 | |
| 20260505160110 | 72 | 0.0 | 0.0 | 0.00 | 0.01 | 0.01 | 45 | 1007.8 | |
| 20260505153105 | 70 | 0.0 | 0.0 | 0.00 | 0.01 | 0.01 | 45 | 1008.3 | |
| 20260505151604 | 69 | 0.0 | 0.0 | 0.00 | 0.01 | 0.01 | 47 | 1008.2 | |
| 20260505124603 | 59 | 0.0 | 0.0 | 0.00 | 0.01 | 0.01 | 65 | 1008.6 | |
| 20260505123112 | 59 | 0.0 | 0.0 | 0.00 | 0.01 | 0.01 | 67 | 1008.6 | |
| 20260505121556 | 60 | 0.0 | 0.0 | 0.01 | 0.01 | 0.01 | 67 | 1008.5 | |
| 20260505114558 | 57 | 0.0 | 0.0 | 0.01 | 0.01 | 0.01 | 68 | 1008.4 | |
| 20260505113059 | 54 | 0.0 | 0.0 | 0.01 | 0.01 | 0.01 | 75 | 1008.6 | |
| 20260505111554 | 56 | 0.0 | 0.0 | 0.00 | 0.00 | 0.00 | 74 | 1008.7 | |
| 20260505110106 | 60 | 0.0 | 0.0 | 0.00 | 0.00 | 0.00 | 57 | 1008.7 | |
| 20260505101556 | 56 | 0.0 | 0.0 | 0.00 | 0.00 | 0.00 | 60 | 1007.9 | |
| 20260505100058 | 55 | 0.0 | 0.0 | 0.00 | 0.00 | 0.00 | 61 | 1007.7 | |
| 20260505094557 | 55 | 0.0 | 0.0 | 0.00 | 0.00 | 0.00 | 63 | 1007.8 | |
| 20260505093054 | 54 | 0.0 | 0.0 | 0.00 | 0.00 | 0.00 | 63 | 1007.8 | |
| 20260505091619 | 54 | 0.0 | 0.0 | 0.00 | 0.00 | 0.00 | 61 | 1007.7 | |
| 20260505090120 | 54 | 0.0 | 0.0 | 0.00 | 0.00 | 0.00 | 61 | 1007.9 | |
| 20260505084613 | 54 | 0.0 | 0.0 | 0.00 | 0.00 | 0.00 | 61 | 1008.2 | |
| 20260505083108 | 54 | 0.0 | 0.0 | 0.00 | 0.00 | 0.00 | 60 | 1008.2 | |
| 20260505081603 | 54 | 0.0 | 0.0 | 0.00 | 0.00 | 0.00 | 60 | 1008.3 | |
| 20260505080107 | 54 | 0.0 | 0.0 | 0.00 | 0.00 | 0.00 | 60 | 1008.3 | |
| 20260505074559 | 55 | 0.0 | 0.0 | 0.00 | 0.00 | 0.00 | 59 | 1008.2 | |
| 20260505073101 | 55 | 0.0 | 0.0 | 0.00 | 0.00 | 0.00 | 58 | 1008.1 | |
| 20260505071613 | 55 | 0.0 | 0.0 | 0.00 | 0.00 | 0.00 | 57 | 1008.1 | |
| 20260505070058 | 55 | 0.0 | 0.0 | 0.00 | 0.00 | 0.00 | 57 | 1008.1 | |
| 20260505064605 | 56 | 0.0 | 0.0 | 0.00 | 0.00 | 0.00 | 55 | 1008.1 | |
| 20260505063055 | 56 | 0.0 | 0.0 | 0.00 | 0.00 | 0.00 | 55 | 1007.9 | |
| 20260505061609 | 56 | 0.0 | 0.0 | 0.00 | 0.00 | 0.00 | 54 | 1007.9 | |
| 20260505060104 | 55 | 0.0 | 0.0 | 0.00 | 0.00 | 0.00 | 55 | 1008.1 | |
| 20260505054556 | 55 | 0.0 | 0.0 | 0.00 | 0.00 | 0.00 | 56 | 1008.2 | |
| 20260505053100 | 55 | 0.0 | 0.0 | 0.00 | 0.00 | 0.00 | 55 | 1008.3 | |
| 20260505051553 | 55 | 0.0 | 0.0 | 0.00 | 0.00 | 0.00 | 56 | 1008.2 | |
| 20260505041603 | 55 | 0.0 | 0.0 | 0.00 | 0.00 | 0.00 | 56 | 1008.5 | |
| 20260505034554 | 55 | 0.0 | 0.0 | 0.00 | 0.00 | 0.00 | 55 | 1008.5 | |
| 20260505033057 | 54 | 0.0 | 0.0 | 0.00 | 0.00 | 0.00 | 56 | 1008.4 | |
| 20260505031556 | 53 | 0.0 | 0.0 | 0.00 | 0.00 | 0.00 | 55 | 1008.4 | |
| 20260505030112 | 53 | 0.0 | 0.0 | 0.00 | 0.00 | 0.00 | 55 | 1008.4 | |
| 20260505024559 | 53 | 0.0 | 0.0 | 0.00 | 0.00 | 0.00 | 55 | 1008.6 | |
| 20260505023055 | 54 | 0.0 | 0.0 | 0.00 | 0.00 | 0.00 | 55 | 1008.5 | |
| 20260505021557 | 53 | 0.0 | 0.0 | 0.00 | 0.00 | 0.00 | 55 | 1008.5 | |
| 20260505020100 | 54 | 0.0 | 0.0 | 0.00 | 0.00 | 0.00 | 54 | 1008.5 | |
| 20260505014610 | 54 | 0.0 | 0.0 | 0.00 | 0.00 | 0.00 | 52 | 1008.4 | |
| 20260505013058 | 55 | 0.0 | 0.0 | 0.00 | 0.00 | 0.00 | 52 | 1008.3 | |
| 20260505011557 | 55 | 0.0 | 0.0 | 0.00 | 0.00 | 0.00 | 50 | 1008.2 | |
| 20260505004557 | 55 | 0.0 | 0.0 | 0.00 | 0.00 | 0.00 | 51 | 1008.1 | |
| 20260505003059 | 56 | 0.0 | 0.0 | 0.00 | 0.00 | 0.00 | 49 | 1008.0 | |
| 20260505001601 | 57 | 0.0 | 0.0 | 0.00 | 0.00 | 0.00 | 48 | 1007.8 |